Weather in Mogutovo

Russia / Orenburg Oblast     53°09′11″N   52°09′10″E
temp.,
°C
wind,
m/s
gust,
m/s
humid.,
%
clouds,
%
prec.,
mm/h
press.,
hPa
HPBL,
m
21 january, fri
fri2123:00−16se249876 0.0 102347
02:00−17se2210089 0.1 102316
05:00−17se229987 0.1 102315
08:00−17se229971 0.1 102333
11:00−17se2310087 0.1 102440
14:00−11sse259587 0.0 1023202
17:00−13se239887 0.0 102343
20:00−18se22100100 0.0 102433
22 january, sat
sat2223:00−16se38100100 0.1 1024105
02:00−17se2299100 0.1 102432
05:00−13se41096100 0.1 1024213
08:00−13se4109699 0.0 1025186
11:00−12sse51296100 0.1 1025263
14:00−9sse51194100 0.0 1026358
17:00−9se51094100 0.0 1026323
20:00−11se41194100 0.0 1028242
23 january, sun
sun2323:00−11se41192100 0.0 1029236
02:00−12sse41288100 0.0 1029254
05:00−13se3987100 0.0 1030170
08:00−13se41087100 0.0 1031160
11:00−13se41082100 0.0 1032206
14:00−10se3883100 0.0 1033238
17:00−9ese3788100 0.0 1034194
20:00−10ese3885100 0.0 1035201
24 january, mon
mon2423:00−11ese4983100 0.0 1036181
02:00−12ese3889100 0.0 1037165
05:00−11se41088100 0.0 1038201
08:00−11ese3889100 0.0 1038198
11:00−12ese3790100 0.0 1039208
14:00−10ese3685100 0.0 1040195
17:00−11ese3787100 0.0 1039150
20:00−15e2292100 0.0 104011
25 january, tue
tue2523:00−15se3486100 0.0 103953
02:00−18ese1189100 0.0 10399
05:00−20e119093 0.0 10399
08:00−20ese118968 0.0 10389
11:00−18sse228895 0.0 103724
14:00−11ese1281100 0.0 103581
17:00−13se1191100 0.0 10349
20:00−19ese219265 0.0 10349